SCP
0 0 0 0 0 0 0 0 0 0 0 0 0 0 0 0 0 0 0 0 0 0 0 0 0 0 0 0 0 0 0 0 0 0 0 0 0 0 0 0 0 0 0
0 0 0 0 0 0 0 0 0 0 0 0 0 0 0 0 0 0 0 0 0 0 0 0 0 0 0 0 0 0 0 0 0 0 0 0 0 0 0 0 0 0 0
0 0 0 0 0 0 0 0 0 0 0 0 0 0 0 0 0 0 0 0 0 0 0 0 0 0 0 0 0 0 0 0 0 0 0 0 0 0 0 0 0 0 0
0 0 0 0 0 0 0 0 0 0 0 0 0 0 0 0 0 0 0 0 0 0 0 0 0 0 0 0 0 0 0 0 0 0 0 0 0 0 0 0 0 0 0
0 0 0 0 0 0 0 0 0 0 0 0 0 0 0 0 0 0 0 0 0 0 0 0 0 0 0 0 0 0 0 0 0 0 0 0 0 0 0 0 0 0 0
0 0 0 0 0 0 0 0 0 0 0 0 0 0 0 0 0 0 0 0 0 0 0 0 0 0 0 0 0 0 0 0 0 0 0 0 0 0 0 0 0 0 0
0 0 0 0 0 0 0 0 0 0 0 0 0 0 0 0 0 0 0 0 0 0 0 0 0 0 0 0 0 0 0 0 0 0 0 0 0 0 0 0 0 0 0
0 0 0 0 0 0 0 0 0 0 0 0 0 0 0 0 0 0 0 0 0 0 0 0 0 0 0 0 0 0 0 0 0 0 0 0 0 0 0 0 0 0 0
0 0 0 0 0 0 0 0 0 0 0 0 0 0 0 0 0 0 0 0 0 0 0 0 0 0 0 0 0 0 0 0 0 0 0 0 0 0 0 0 0 0 0
0 0 0 0 0 0 0 0 0 0 0 0 0 0 0 0 0 0 0 0 0 0 0 0 0 0 0 0 0 0 0 0 0 0 0 0 0 0 0 0 0 0 0
0 0 0 0 0 0 0 0 0 0 0 0 0 0 0 0 0 0 0 0 0 0 0 0 0 0 0 0 0 0 0 0 0 0 0 0 0 0 0 0 0 0 0
0 0 0 0 0 0 0 0 0 0 0 0 0 0 0 0 0 0 0 0 0 0 0 0 0 0 0 0 0 0 0 0 0 0 0 0 0 0 0 0 0 0 0
0 0 0 0 0 0 0 0 0 0 0 0 0 0 0 0 0 0 0 0 0 0 0 0 0 0 0 0 0 0 0 0 0 0 0 0 0 0 0 0 0 0 0
0 0 0 0 0 0 0 0 0 0 0 0 0 0 0 0 0 0 0 0 0 0 0 0 0 0 0 0 0 0 0 0 0 0 0 0 0 0 0 0 0 0 0
0 0 0 0 0 0 0 0 0 0 0 0 0 0 0 0 0 0 0 0 0 0 0 0 0 0 0 0 0 0 0 0 0 0 0 0 0 0 0 0 0 0 0
0 0 0 0 0 0 0 0 0 0 0 0 0 0 0 0 0 0 0 0 0 0 0 0 0 0 0 0 0 0 0 0 0 0 0 0 0 0 0 0 0 0 0
0 0 0 0 0 0 0 0 0 0 0 0 0 0 0 0 0 0 0 0 0 0 0 0 0 0 0 0 0 0 0 0 0 0 0 0 0 0 0 0 0 0 0
0 0 0 0 0 0 0 0 0 0 0 0 0 0 0 0 0 0 0 0 0 0 0 0 0 0 0 0 0 0 0 0 0 0 0 0 0 0 0 0 0 0 0
0 0 0 0 0 0 0 0 0 0 0 0 0 0 0 0 0 0 0 0 0 0 0 0 0 0 0 0 0 0 0 0 0 0 0 0 0 0 0 0 0 0 0
0 0 0 0 0 0 0 0 0 0 0 0 0 0 0 0 0 0 0 0 0 0 0 0 0 0 0 0 0 0 0 0 0 0 0 0 0 0 0 0 0 0 0
0 0 0 0 0 0 0 0 0 0 0 0 0 0 0 0 0 0 0 0 0 0 0 0 0 0 0 0 0 0 0 0 0 0 0 0 0 0 0 0 0 0 0
0 0 0 0 0 0 0 0 0 0 0 0 0 0 0 0 0 0 0 0 0 0 0 0 0 0 0 0 0 0 0 0 0 0 0 0 0 0 0 0 0 0 0
0 0 0 0 0 0 0 0 0 0 0 0 0 0 0 0 0 0 0 0 0 0 0 0 0 0 0 0 0 0 0 0 0 0 0 0 0 0 0 0 0 0 0
0 0 0 0 0 0 0 0 0 0 0 0 0 0 0 0 0 0 0 0 0 0 0 0 0 0 0 0 0 0 0 0 0 0 0 0 0 0 0 0 0 0 0
0 0 0 0 0 0 0 0 0 0 0 0 0 0 0 0 0 0 0 0 0 0 0 0 0 0 0 0 0 0 0 0 0 0 0 0 0 0 0 0 0 0 0
0 0 0 0 0 0 0 0 0 0 0 0 0 0 0 0 0 0 0 0 0 0 0 0 0 0 0 0 0 0 0 0 0 0 0 0 0 0 0 0 0 0 0
Wind_Speed
1 1 1 1 1 1 1 1 1 1 1 1 1 1 1 1 1 1 2 6 7 6 4 4 4 4 4 4 4 4 4 4 4 5 4 5 5 5 5 6 6 6 6
1 1 1 1 1 1 1 1 1 1 1 1 1 1 0 1 1 1 1 3 5 7 7 5 5 4 4 4 4 4 5 5 5 6 5 5 6 6 6 6 6 7 7
1 1 1 1 1 1 1 1 1 1 1 1 1 1 0 0 1 1 1 2 2 4 6 6 6 5 5 5 4 4 4 4 4 5 6 6 6 6 6 6 7 7 8
1 1 1 1 1 1 1 1 1 1 1 1 0 0 0 1 1 1 1 1 2 2 3 5 6 6 6 6 5 4 4 4 4 4 5 6 6 6 7 7 7 7 8
1 2 1 1 2 1 1 1 1 1 1 1 1 0 0 0 0 1 1 1 2 2 2 3 4 6 6 6 6 5 5 4 4 4 5 6 7 7 7 8 8 8 8
2 2 1 2 2 2 1 2 2 1 1 1 0 0 0 0 0 0 0 1 1 2 2 2 2 2 5 6 7 6 6 5 5 5 6 6 7 7 8 8 9 9 9
2 2 1 2 2 2 2 2 2 2 1 0 0 1 1 1 1 0 0 0 1 1 2 2 2 2 2 4 6 7 7 6 6 6 6 7 8 8 8 9 9 10 10
2 2 2 2 2 2 2 2 2 2 1 1 1 1 1 2 2 1 0 0 0 0 1 1 2 2 2 2 4 6 7 7 7 7 7 7 8 9 9 10 10 10 11
2 2 3 3 2 2 2 2 3 3 2 2 1 2 2 1 0 1 1 1 0 1 1 1 1 1 2 2 3 5 7 8 8 8 9 9 9 10 10 11 11 11 12
2 3 3 3 3 3 3 3 3 3 3 3 2 1 2 1 2 1 1 1 1 1 2 1 1 1 2 2 3 5 7 8 8 9 9 10 10 11 11 11 12 12 12
2 2 3 3 3 3 3 3 3 3 3 3 2 2 2 2 2 3 3 2 1 2 2 2 2 2 2 2 3 4 6 7 8 9 9 10 11 12 12 12 13 13 13
2 2 3 3 3 3 3 3 3 4 3 3 3 2 2 2 2 3 4 4 3 2 3 3 2 2 2 3 3 5 6 7 8 9 10 11 11 12 12 13 14 14 14
2 3 3 3 3 3 3 3 3 4 4 4 4 3 3 3 2 3 4 4 4 3 3 3 2 2 2 3 3 5 6 8 9 10 10 11 12 12 13 14 14 14 14
2 2 3 3 3 3 4 4 3 3 4 4 5 4 3 3 3 3 3 3 4 4 3 4 2 2 3 3 4 5 5 7 10 11 11 12 12 13 13 14 14 15 15
2 2 3 3 3 3 4 4 3 4 4 4 4 4 4 3 3 3 3 3 4 5 5 4 3 2 3 3 4 5 6 8 10 11 12 12 13 13 14 14 15 15 15
2 2 2 3 3 3 3 3 3 3 4 4 3 4 4 3 3 3 3 3 4 5 5 4 4 3 3 4 5 6 7 9 10 11 12 13 13 14 15 15 15 16 16
3 3 3 3 3 3 3 3 4 4 4 4 4 4 5 4 3 3 3 3 4 4 6 5 4 4 5 5 5 5 6 7 6 10 12 13 13 14 15 15 15 16 16
3 3 3 3 3 3 3 4 4 4 5 5 5 5 5 3 4 3 3 4 4 4 5 7 5 5 6 6 6 7 6 6 7 10 12 13 13 14 15 15 15 15 15
2 2 3 3 3 4 4 4 4 4 5 5 5 5 5 4 5 4 4 4 3 4 4 5 6 5 5 5 6 7 7 7 7 8 11 12 13 15 15 15 15 15 15
3 3 3 3 3 3 4 3 4 4 4 4 4 4 4 5 5 4 4 4 4 4 4 5 5 5 5 5 5 6 6 6 7 7 8 9 12 14 15 16 15 15 16
3 3 3 3 3 3 3 3 3 4 3 3 3 3 4 4 4 4 4 4 4 4 4 5 5 5 5 5 5 5 7 7 8 5 7 7 8 8 9 11 13 15 16
3 3 3 3 3 2 2 4 3 3 3 4 4 3 3 3 3 5 6 5 5 5 5 5 5 6 7 6 6 6 7 7 7 4 6 8 7 8 7 7 12 15 16
4 4 3 3 3 3 3 4 3 3 3 4 4 3 3 2 3 4 5 6 6 7 7 7 7 8 8 7 7 8 8 8 9 7 7 9 7 9 7 8 14 16 16
4 4 4 4 3 3 4 4 4 3 3 3 3 4 4 4 4 4 4 5 5 5 6 7 7 8 7 7 7 8 9 9 10 6 5 8 7 8 8 8 12 14 15
4 4 3 4 4 3 4 4 4 3 2 3 3 3 4 4 4 4 4 5 6 5 5 7 8 9 9 9 7 5 6 6 8 6 3 6 6 8 8 8 8 12 13
4 4 4 4 4 3 4 4 4 2 3 3 3 3 4 5 5 5 5 5 6 6 5 5 6 7 7 7 8 6 6 6 6 6 2 4 5 6 7 5 5 6 8
Wind_Direction
180 171 160 156 156 136 149 139 134 121 115 119 109 101 78 91 77 58 50 38 19 12 17 27 22 21 22 24 18 12 14 17 9 355 342 338 336 331 327 322 321 319 317
188 185 177 167 167 170 162 172 169 167 170 161 138 127 131 133 98 60 31 51 38 24 23 22 20 20 18 15 10 13 17 22 21 13 3 351 345 340 331 325 325 322 317
193 193 191 187 189 176 168 163 164 182 174 166 160 171 158 137 93 59 32 18 23 29 24 19 18 13 12 11 11 9 6 5 11 8 6 4 358 351 345 334 321 316 314
192 196 198 196 168 162 171 170 180 182 178 194 199 174 152 128 96 53 41 23 4 3 21 22 20 15 12 8 6 7 359 350 355 357 358 355 351 346 344 336 331 330 325
190 187 189 176 173 172 178 183 193 200 193 211 233 217 172 174 117 88 61 37 14 359 359 21 20 17 10 7 4 3 359 355 0 359 353 346 343 339 335 335 327 323 322
191 180 173 178 178 178 177 184 187 185 204 236 239 283 302 218 178 131 102 72 21 0 358 7 4 15 12 8 3 355 350 350 352 348 340 335 330 329 329 328 321 318 318
190 188 189 187 183 185 184 187 185 182 185 195 227 238 201 184 162 119 116 100 40 6 4 5 359 355 353 4 1 355 349 349 345 339 336 332 328 324 321 321 318 313 315
199 196 201 206 199 190 185 188 191 197 186 185 235 253 244 190 164 169 183 175 121 348 350 350 359 356 343 337 354 352 344 339 337 335 333 328 324 321 319 316 314 314 314
207 203 205 209 203 202 204 203 205 208 202 186 218 251 250 257 309 184 204 209 219 265 287 324 327 330 333 330 335 341 340 335 334 334 330 326 321 317 314 312 312 311 311
218 213 211 210 205 206 213 214 215 224 213 198 183 235 283 304 257 250 200 214 261 270 274 271 271 287 306 312 328 335 335 331 329 327 324 321 317 314 313 311 308 307 306
217 221 218 209 209 211 213 215 208 210 214 214 200 188 204 230 241 251 258 258 259 258 264 261 268 277 287 297 302 326 326 322 320 320 317 316 313 311 310 309 307 306 305
213 216 218 215 214 215 214 216 215 209 210 214 213 201 198 210 217 228 247 266 273 275 269 259 265 269 283 288 295 321 312 309 310 312 311 310 308 307 307 305 304 302 301
218 213 209 216 217 217 216 216 215 215 214 215 217 220 218 229 238 236 245 261 274 275 263 254 258 267 278 284 292 305 293 298 302 304 303 303 302 302 302 301 300 300 300
225 219 210 214 217 213 212 210 215 220 217 219 223 226 221 225 233 236 238 254 267 267 258 265 256 260 282 283 296 292 287 293 297 297 298 299 299 299 299 299 298 298 298
219 215 211 211 215 213 211 207 212 217 217 225 225 224 223 224 230 234 233 237 253 269 276 270 274 274 283 285 295 290 289 295 292 293 295 296 296 296 296 296 295 295 295
210 208 205 204 207 209 206 203 210 217 219 224 229 225 223 222 222 226 227 237 248 257 270 286 283 297 294 288 295 293 291 297 290 294 294 293 294 293 293 293 292 293 293
206 210 212 206 206 211 210 207 213 216 221 230 234 230 228 224 224 227 228 236 246 249 262 277 280 288 289 292 297 292 289 290 290 292 292 292 293 292 292 291 291 291 291
214 210 211 205 206 214 215 213 218 221 224 231 233 232 233 226 229 233 232 239 244 246 256 272 281 284 285 289 294 291 289 288 287 293 291 290 292 294 293 291 290 289 288
209 206 208 209 208 212 214 217 221 226 230 234 236 232 231 226 232 236 241 245 249 253 256 265 276 282 286 291 294 290 288 288 286 289 287 287 289 291 290 288 288 290 289
204 206 211 213 212 216 218 218 223 228 233 243 242 237 236 233 236 240 242 248 253 255 257 263 271 280 284 291 289 291 293 292 291 289 285 288 289 287 285 285 286 288 288
205 208 208 212 212 217 222 215 218 225 234 245 245 240 242 245 250 250 250 251 250 253 258 262 269 279 283 290 288 293 292 299 293 283 293 289 287 283 283 282 282 284 286
204 202 205 210 216 224 211 213 221 221 232 239 246 249 249 245 249 252 256 259 257 249 253 258 265 272 280 286 291 290 293 297 294 295 295 288 283 281 282 280 286 287 285
203 205 208 211 218 222 208 209 214 227 236 243 247 250 250 254 254 255 254 253 253 254 252 257 264 269 278 284 287 286 284 284 284 295 295 285 282 281 283 282 286 286 287
205 210 212 215 220 222 206 210 208 225 240 249 252 252 254 260 257 258 264 265 263 259 260 257 262 271 278 285 282 282 286 285 283 276 273 280 287 287 289 283 280 281 287
206 209 210 212 220 227 212 213 212 225 235 250 256 257 255 261 271 266 265 268 271 270 266 265 273 278 283 287 291 288 286 287 287 284 266 274 288 298 289 276 278 284 288
208 204 209 216 223 231 220 222 221 221 235 250 257 258 258 265 280 272 267 269 271 278 286 283 277 278 277 277 275 267 270 274 283 284 261 279 287 306 296 278 284 291 289